TimeMDT,TemperatureF,Dew PointF,Humidity,Sea Level PressureIn,VisibilityMPH,Wind Direction,Wind SpeedMPH,Gust SpeedMPH,PrecipitationIn,Events,Conditions,WindDirDegrees,DateUTC
1:53 AM,30.9,24.1,76,29.97,10.0,Calm,Calm,-,N/A,,Clear,0,2013-04-26 07:53:00
2:53 AM,28.9,21.9,75,29.97,10.0,Calm,Calm,-,N/A,,Clear,0,2013-04-26 08:53:00
3:53 AM,26.1,21.0,81,30.00,10.0,Calm,Calm,-,N/A,,Clear,0,2013-04-26 09:53:00
4:53 AM,27.0,21.9,81,30.01,10.0,Calm,Calm,-,N/A,,Clear,0,2013-04-26 10:53:00
5:53 AM,28.0,23.0,81,30.04,10.0,Calm,Calm,-,N/A,,Clear,0,2013-04-26 11:53:00
6:53 AM,35.1,27.0,72,30.06,10.0,Calm,Calm,-,N/A,,Clear,0,2013-04-26 12:53:00
7:53 AM,48.0,30.0,50,30.07,10.0,Calm,Calm,-,N/A,,Clear,0,2013-04-26 13:53:00
8:53 AM,61.0,27.0,27,30.08,10.0,West,10.4,-,N/A,,Clear,270,2013-04-26 14:53:00
9:53 AM,64.0,26.1,24,30.09,10.0,West,9.2,-,N/A,,Clear,260,2013-04-26 15:53:00
10:53 AM,66.0,25.0,21,30.09,10.0,Calm,Calm,-,N/A,,Clear,0,2013-04-26 16:53:00
11:53 AM,69.1,24.1,18,30.09,10.0,WNW,12.7,18.4,N/A,,Clear,290,2013-04-26 17:53:00
12:53 PM,71.1,23.0,16,30.07,10.0,West,9.2,16.1,N/A,,Partly Cloudy,260,2013-04-26 18:53:00
1:53 PM,73.0,21.9,15,30.06,10.0,West,12.7,19.6,N/A,,Clear,280,2013-04-26 19:53:00
2:53 PM,73.0,21.9,15,30.06,10.0,West,15.0,20.7,N/A,,Clear,260,2013-04-26 20:53:00
3:53 PM,73.0,23.0,15,30.05,10.0,Variable,4.6,-,N/A,,Clear,0,2013-04-26 21:53:00
4:53 PM,73.0,21.9,15,30.04,10.0,WSW,13.8,-,N/A,,Clear,250,2013-04-26 22:53:00
5:53 PM,72.0,23.0,16,30.04,10.0,West,11.5,21.9,N/A,,Clear,260,2013-04-26 23:53:00
6:53 PM,69.1,24.1,18,30.04,10.0,WSW,8.1,-,N/A,,Clear,250,2013-04-27 00:53:00
7:53 PM,57.0,26.1,30,30.03,10.0,SW,3.5,-,N/A,,Clear,230,2013-04-27 01:53:00
8:53 PM,50.0,26.1,39,30.04,10.0,Calm,Calm,-,N/A,,Clear,0,2013-04-27 02:53:00
9:53 PM,48.0,27.0,44,30.04,10.0,Calm,Calm,-,N/A,,Clear,0,2013-04-27 03:53:00
10:53 PM,46.9,27.0,46,30.03,10.0,Calm,Calm,-,N/A,,Clear,0,2013-04-27 04:53:00
11:53 PM,48.0,27.0,44,30.01,10.0,South,3.5,-,N/A,,Clear,180,2013-04-27 05:53:00